Regional Weather Roundup
Issued by NWS

Home | Current Version | Previous Version | Text Only | Print | Product List | Glossary On
Versions: 1 2 3 4 5 6 7 8 9 10 11 12 13 14 15 16 17 18 19 20 21 22 23 24 25 26 27 28 29 30 31 32 33 34 35 36 37 38 39 40 41 42 43 44 45 46 47 48 49 50
650
ASHW40 PHFO 051043
RWRHI

WEATHER ROUNDUP FOR HAWAII
NATIONAL WEATHER SERVICE HONOLULU HI
1200 AM HST THU MAY 05 2016

THIS IS AN AUTOMATED REPORT THAT HAS NOT BEEN QUALITY CONTROLLED.

NOTE..."FAIR" INDICATES FEW OR NO CLOUDS BELOW 12,000 FEET WITH NO
SIGNIFICANT WEATHER AND/OR OBSTRUCTIONS TO VISIBILITY.

* - THESE SITES REPORT LIMITED FIELDS

HIZ001>004-051100-
KAUAI-NIIHAU-

CITY           SKY/WX    TMP DP  RH WIND       PRES   REMARKS
LIHUE APT      CLOUDY    77  70  78 E15       30.09F
PORT ALLEN*      N/A     75 N/A N/A E12         N/A
POIPU*           N/A     75 N/A N/A NE7G15      N/A
PRINCEVILLE*     N/A     72 N/A N/A SE6G12      N/A
KOKOLE POINT*  NOT AVBL
MOLOAA DAIRY*    N/A     73  66  78 E8G17       N/A
WAIMEA HTS*      N/A     72  68  88 E9          N/A
PUU OPAE*        N/A     66  64  94 E6          N/A
PUU LUA*       NOT AVBL
MAKAHA RIDGE*    N/A     68  66  94 CALM        N/A
$$

HIZ005>011-051100-
OAHU-

CITY           SKY/WX    TMP DP  RH WIND       PRES   REMARKS
HONOLULU       PTCLDY    75  67  76 E12       30.08S
KALAELOA       CLEAR     70  66  87 E5        30.09S
KANEOHE MCB    CLOUDY    76  67  73 E6        30.07F
WHEELER FIELD  FAIR      68  66  92 SW2       30.08F
BELLOWS*         N/A    N/A N/A N/A NE14        N/A
KAHUKU*          N/A    N/A N/A N/A VRB9G16     N/A
WHEELER*         N/A    N/A N/A N/A SW1         N/A
WAIANAE HARBOR   N/A    N/A N/A N/A NE5         N/A
DILLINGHAM*      N/A     70  64  83 MISG        N/A
KAHUKU TRN*      N/A     79  70  73 CALM        N/A
KAWAILOA*        N/A     68  61  77 SE2G9       N/A
KII*             N/A     75  68  78 E15         N/A
MAKUA RANGE*     N/A     77  72  83 E2          N/A
OAHU FOREST NW NOT AVBL
SCHOFIELD BRK*   N/A     66  64  94 MISG        N/A
SCHOFIELD S*   NOT AVBL
WAIANAE VLY*   NOT AVBL
KUAOKALA*      NOT AVBL
HONOULIUULI*   NOT AVBL
MOKUOLOE IS*   NOT AVBL
PALEHUA*         N/A     64  61  88 NE10        N/A
WAIAWA PHB*    NOT AVBL
$$

HIZ012>013-051100-
MOLOKAI-

CITY           SKY/WX    TMP DP  RH WIND       PRES   REMARKS
MOLOKAI AIRPT  CLEAR     72  63  73 N7        30.09F
KALAUPAPA      NOT AVBL
MAKAPULAPAI*     N/A     75  66  73 E18G25      N/A
MOLOKAI 1*     NOT AVBL
PUU ALII*        N/A     56  56 100 NE3G10      N/A
$$

HIZ016-051100-
KAHOOLAWE-

CITY           SKY/WX    TMP DP  RH WIND       PRES   REMARKS
KAHOOLAWE*       N/A     68 N/A N/A E1          N/A
HAKIOAWA*        N/A     71  66  83 MISG      30.49F
HONOKANAIA*      N/A     75  62  64 NE13G29   30.01F
KANELOA*         N/A     73  66  78 NE15G26   30.14F
KEALIALALO*    NOT AVBL
LUA MAKIKA*    NOT AVBL
$$

HIZ014>015-051100-
LANAI-

CITY           SKY/WX    TMP DP  RH WIND       PRES   REMARKS
LANAI CITY     FAIR      67  64  90 E7        30.13S
LANAI 1*       NOT AVBL
$$

HIZ017>028-051100-
MAUI-

CITY           SKY/WX    TMP DP  RH WIND       PRES   REMARKS
KAHULUI        MOCLDY    74  66  76 NE9       30.07F
KAPALUA-W MAUI NOT AVBL
HANA AIRPORT   NOT AVBL
HANA*            N/A     70 N/A N/A S3          N/A
HALEAKALA SUMM   N/A     46  -9   9 SE20        N/A
MAALAEA BAY*     N/A     75 N/A N/A VRB17G26    N/A
HALEAKALA*     NOT AVBL
KAUPO GAP*       N/A     55  46  71 NW5G10      N/A
KULA 1*          N/A     45  39  81 E3G10       N/A
$$

HIZ023>026-051100-
BIG ISLAND OF HAWAII COAST AND LOWER SLOPES-

CITY           SKY/WX    TMP DP  RH WIND       PRES   REMARKS
KAILUA KONA    CLEAR     76  66  71 CALM      30.04F
HILO           PTCLDY    70  64  81 VRB3      30.10F
HONOKAA*         N/A     66 N/A N/A VRB1        N/A
KAWAIHAE MWT*    N/A     77 N/A N/A W3          N/A
KAWAIHAE*        N/A     79 N/A N/A N6        30.03F
SOUTH POINT*     N/A     66 N/A N/A N9          N/A
UPOLU AIRPORT*   N/A    N/A N/A N/A E12G17      N/A
KAMUELA*       SUNNY     63  57  82 NE12      30.14F
HAKALAU*         N/A     43  41  93 SW5         N/A
KALOKO-HONOKO*   N/A     73  63  68 CALM      30.03F
PALI 2*          N/A     63  55  77 S10G18      N/A
KEALAKOMO*       N/A     75  64  69 NE12G18     N/A
KAUPULEHU*       N/A    N/A N/A N/A S6          N/A
KAPAPALA*        N/A     60  56  87 VRB3        N/A
LOWER KAHUKU*    N/A     61 -40   1 N2          N/A
PUHE CS*         N/A     75  61  60 NE3G9       N/A
PUHO CS*         N/A     71  62  74 E2          N/A
PTA KEAMUKU*     N/A     57  52  82 CALM        N/A
WAIKOLOA*        N/A     70  57  64 E12G18      N/A
$$

HIZ027>028-051100-
BIG ISLAND OF HAWAII INTERIOR AND SUMMMITS-

CITY           SKY/WX    TMP DP  RH WIND       PRES   REMARKS
BRADSHAW FIELD CLOUDY    48  43  85 SE2       30.36F
MK VISITOR CEN   N/A     52  -2  11 E6          N/A
MAUNA KEA*       N/A     36   7  30 NE10        N/A  WCI  28
MAUNA LOA*       N/A     48   1  14 MISG        N/A
MAUNA LOA 1*   NOT AVBL
PTA KIPUKA*      N/A     48  45  87 SE7         N/A
PTA RANGE 17*    N/A     52  43  71 S3G9        N/A
PTA WEST*        N/A     52  48  87 S5G13       N/A
NENE CABIN*      N/A     46  39  76 NE7G14      N/A
AHUMOA*          N/A     46  45  93 SE9         N/A
PTA PORTABLE*  NOT AVBL
PUU MALI*        N/A     54  41  62 SE3G15      N/A
$$

HIC003-051100-
NORTHWEST ISLANDS-

CITY           SKY/WX    TMP DP  RH WIND       PRES   REMARKS
MIDWAY ISLAND  CLOUDY    64  52  63 N10       30.25F
MIDWAY NOS*      N/A     64 N/A N/A MISG      30.23F
FRENCH FRIGATE NOT AVBL
$$

PHZ110>124-180-051100-
BUOY REPORTS

STATION/POSITION TIME  TEMP    WIND        PRES    WAVE   SWELL
                       AIR SEA DIR/SP/G            HT/PER HT/DIR
                 (UTC) (F)     (DEG/KT/KT) (MB)    (FT/S) (FT/D)
BUOY 51001       1000   78 79   70/  8/ 10 1018.0S
BUOY 51101       0950   75 76   70/  4/  6 1019.0F   6/14   7/290
BUOY 51100       NOT AVBL
BUOY 51002       0950   77 78   90/ 16/ 17 1017.2F   7/ 8   5/100
BUOY 51003       0950   77 78   60/ 12/ 14 1017.6F   7/15   7/320
BUOY 51004       0950   79 79   80/ 17/ 19 1017.4F   7/ 8   5/ 70
BARBERS PT BUOY  NOT AVBL
WAIMEA BAY BUOY  1004      78                N/A     5/15   3/310
KAILUA BAY BUOY  1011      78                N/A     6/ 8   2
LANAI BUOY       1015      79                N/A     3/13   2/210
BARBERS PT 2     1003      79                N/A     4/17   3/300
PAUWELA MAUI     1009      77                N/A     6/ 8   2/310
HILO             1012      78                N/A     7/ 8   2/340
KANEOHE BAY BUOY 1006      77                N/A     6/ 8   2/ 20
HANALEI KAUAI    NOT AVBL
KAHULUI HARBOR   1000   75 77  340/  9/ 13 1018.5F
HONOLULU HARBOR  1000   76 78   60/  4/  6 1019.0F
KILO NALU        NOT AVBL
HILO HARBOR      1000   70 77  180/  4/  5 1018.7F
MOKUOLOE         0900   75 79   90/  7/ 11 1019.2S
NAWILIWILI       1000   76 80   90/ 13/ 15 1018.6F
WHOTS BUOY       NOT AVBL
BUOY 51028       NOT AVBL
$$

......................KEY........................................
  SKY/WX - SKY CONDITIONS/PRESENT WEATHER
  TMP    - TEMPERATURE IN FAHRENHEIT
  DWPT   - DEWPOINT IN FAHRENHEIT
  RH     - RELATIVE HUMIDITY IN PERCENT
  WIND   - DIRECTION AND SPEED /MPH FOR ISLANDS...KTS FOR BUOYS/
  PRES   - MEAN SEA LEVEL PRESSURE IN INCHES OF HG
  VSB    - VISIBILITY IN MILES
  HX     - HEAT INDEX
  WCI    - WIND CHILL INDEX
  VRB    - VARIABLE WIND DIRECTION
  N/A    - NOT AVAILABLE




USA.gov is the U.S. government's official web portal to all federal, state and local government web resources and services.